New River MCAS, NC

2:57 AM EST on November 23, 2017 (GMT -0500)
New River Marine Corps Air Station

Weather History for KNCA - May, 2013

Change the Weather History Date:

Tuesday, May 21, 2013

  Actual Average Record
Temperature  
Mean Temperature 76 °F -  
Max Temperature 82 °F 79 °F 91 °F (1998)
Min Temperature 70 °F 58 °F 45 °F (2002)
Cooling Degree Days 11    
Growing Degree Days 26 (Base 50)    
Moisture  
Dew Point 70 °F    
Average Humidity 86    
Maximum Humidity 97    
Minimum Humidity 65    
Precipitation  
Precipitation 0.47 in - - ()
Sea Level Pressure  
Sea Level Pressure 30.07 in    
Wind  
Wind Speed 7 mph (SSW)    
Max Wind Speed 16 mph    
Max Gust Speed 22 mph    
Visibility 8 miles    
Events Rain , Thunderstorm    
Averages and records for this station are not official NWS values.
T = Trace of Precipitation, MM = Missing Value Source: NWS Daily Summary

Daily Weather History Graph

Daily Weather History Graph

Search for Another Location

Airport or City:

Trip Planner

Search our weather history database for the weather conditions in past years. The results will help you decide how hot, cold, wet, or windy it might be!

Date:

Astronomy

May. 21, 2013 Rise Set
Actual Time 6:02 AM EDT 8:10 PM EDT
Civil Twilight 5:34 AM EDT 8:38 PM EDT
Nautical Twilight 4:59 AM EDT 9:13 PM EDT
Astronomical Twilight 4:22 AM EDT 9:51 PM EDT
Moon 4:29 PM EDT (5/21) 3:19 AM EDT (5/21)
Length of Visible Light 15h 04m
Length of Day
14h 07m
Waxing Gibbous, 84% of the Moon is Illuminated
May 21
Waxing Gibbous
May 25
Full
May 31
Last Quarter
Jun 8
New
Jun 16
First Quarter

Hourly Weather History & Observations

Time (EDT) Temp. Heat Index Dew Point Humidity Pressure Visibility Wind Dir Wind Speed Gust Speed Precip Events Conditions
12:56 AM 70.0 °F - 69.1 °F 97% 30.09 in 9.0 mi South 4.6 mph - N/A   Partly Cloudy
1:56 AM 71.1 °F - 69.1 °F 93% 30.06 in 9.0 mi South 6.9 mph - N/A   Overcast
2:56 AM 71.1 °F - 69.1 °F 93% 30.05 in 10.0 mi South 4.6 mph - N/A   Mostly Cloudy
3:56 AM 71.1 °F - 69.1 °F 93% 30.06 in 10.0 mi South 5.8 mph - N/A   Overcast
4:56 AM 71.1 °F - 69.1 °F 93% 30.06 in 10.0 mi South 4.6 mph - N/A   Overcast
5:56 AM 70.0 °F - 69.1 °F 97% 30.07 in 8.0 mi South 4.6 mph - N/A   Clear
6:56 AM 71.1 °F - 70.0 °F 96% 30.09 in 10.0 mi South 4.6 mph - N/A   Mostly Cloudy
7:56 AM 73.9 °F - 70.0 °F 87% 30.09 in 10.0 mi SSW 5.8 mph - N/A   Partly Cloudy
8:56 AM 78.1 °F - 69.1 °F 74% 30.10 in 10.0 mi SW 8.1 mph - N/A   Scattered Clouds
9:12 AM 73.4 °F - 69.8 °F 88% 30.09 in 1.0 mi SW 16.1 mph 21.9 mph 0.10 in Rain Rain
9:20 AM 71.6 °F - 69.8 °F 94% 30.09 in 4.0 mi SSW 8.1 mph 21.9 mph 0.14 in Rain Rain
9:43 AM 71.6 °F - 69.8 °F 94% 30.09 in 8.0 mi SSW 3.5 mph - 0.14 in   Overcast
9:56 AM 73.0 °F - 71.1 °F 93% 30.10 in 10.0 mi SSW 3.5 mph - 0.14 in   Overcast
10:37 AM 75.2 °F - 71.6 °F 89% 30.09 in 10.0 mi SW 3.5 mph - 0.01 in   Overcast
10:52 AM 77.0 °F - 73.4 °F 89% 30.08 in 10.0 mi Variable 3.5 mph - 0.01 in   Mostly Cloudy
10:56 AM 77.0 °F - 73.0 °F 88% 30.09 in 10.0 mi Variable 3.5 mph - 0.01 in   Mostly Cloudy
11:15 AM 78.8 °F - 71.6 °F 78% 30.08 in 10.0 mi SW 8.1 mph - N/A   Mostly Cloudy
11:42 AM 75.2 °F - 71.6 °F 89% 30.08 in 1.5 mi WSW 12.7 mph - 0.07 in Rain Rain
11:51 AM 73.4 °F - 69.8 °F 88% 30.09 in 4.0 mi SW 13.8 mph 21.9 mph 0.26 in Rain Rain
11:56 AM 72.0 °F - 68.0 °F 87% 30.09 in 4.0 mi SSW 3.5 mph 21.9 mph 0.32 in Rain Rain
12:18 PM 78.8 °F - 73.4 °F 83% 30.08 in 4.0 mi SSW 4.6 mph - 0.00 in Rain , Thunderstorm Thunderstorms and Rain
12:45 PM 78.8 °F - 69.8 °F 74% 30.07 in 8.0 mi SSW 11.5 mph - 0.00 in Rain Rain
12:56 PM 80.1 °F 82.9 °F 69.1 °F 69% 30.08 in 8.0 mi SSW 13.8 mph 18.4 mph 0.00 in Rain Rain
1:56 PM 82.0 °F 85.5 °F 69.1 °F 65% 30.06 in 10.0 mi South 8.1 mph - 0.00 in   Mostly Cloudy
2:56 PM 82.0 °F 85.5 °F 69.1 °F 65% 30.05 in 10.0 mi South 12.7 mph 18.4 mph N/A   Clear
3:56 PM 79.0 °F - 68.0 °F 69% 30.02 in 10.0 mi South 12.7 mph 18.4 mph N/A   Partly Cloudy
4:56 PM 78.1 °F - 68.0 °F 71% 30.03 in 10.0 mi South 9.2 mph 17.3 mph N/A   Clear
5:56 PM 75.0 °F - 68.0 °F 79% 30.04 in 10.0 mi South 9.2 mph - N/A   Clear
6:56 PM 73.9 °F - 66.9 °F 79% 30.04 in 10.0 mi South 9.2 mph - N/A   Mostly Cloudy
7:56 PM 72.0 °F - 66.9 °F 84% 30.03 in 10.0 mi South 10.4 mph - N/A   Clear
8:56 PM 71.1 °F - 66.9 °F 87% 30.03 in 10.0 mi South 8.1 mph - N/A   Clear
9:56 PM 70.0 °F - 68.0 °F 93% 30.04 in 10.0 mi South 5.8 mph - N/A   Clear
10:56 PM 70.0 °F - 69.1 °F 97% 30.04 in 10.0 mi South 5.8 mph - N/A   Clear
11:56 PM 70.0 °F - 69.1 °F 97% 30.06 in 10.0 mi South 3.5 mph - N/A   Clear